Voltar ao catálogo

STARLINK-34075

AtivoComunicaçõesVLEO
NORAD 63917·PAYLOAD·🇺🇸 United States

Lançado May 10, 2025 de Cape Canaveral Space Force Station

Loading…

Próximas Passagens (próximas 24 horas)

TLE

AtualizadoSource: CelesTrak SupGP

Época: Sep 15, 2026, 03:33 UTC

1 63917C 25095AD  26258.14840278 -.00027201  00000+0 -98554-3 0  2589
2 63917  43.0020 186.0443 0001370 275.6388 150.0439 15.27581697    17

Acompanhe STARLINK-34075 em tempo real com AllMySat

Download on the App Store